Location: G�migny
(47.9646°N, 1.6950°E)
Time: 17:10:42
(UTC+00:00)

STARLINK-37 - Pass Details

Date: 23 October 2019
Orbit: 548 x 553 km, 53.0° (Epoch: 17 November)

Event Time Altitude Azimuth Distance (km) Brightness Sun altitude
Rises 17:21:22 0° 280° (W) 2,725 8.7 -5.8°
Reaches altitude 10° 17:23:43 10° 288° (WNW) 1,831 7.4 -6.2°
Maximum altitude 17:27:39 40° 359° (N) 818 4.4 -6.9°
Drops below altitude 10° 17:31:36 10° 71° (ENE) 1,828 5.6 -7.5°
Enters shadow 17:31:45 - 71° (ENE) 1,885 5.7 -7.5°
